[[{"header":{"parameterUnit":"m.s-1","parameterCategory":1,"la1":30.2991,"la2":30.254,"lo1":-89.0895,"lo2":-89.0444,"dy":0.0017,"dx":0.0017,"nx":28,"ny":28,"refTime":"2024-04-29T09:00:00:Z","depth":0,"parameterNumber":2,"parameterNumberName":"U-component_of_WINDS"},"data":[0,0,0,0,0,0,0,0,0,0,0,0,0,0,0,0,0,0,0,0,0,0,0,0,0,0,0,0,0,0,0,0,0,0,0,0,0,0,0,0,0,0,0,0,0,0,0,0,0,0,0,0,0,0,0,0,0,0,-5.46,-5.4601,0,-5.4717,-5.4719,-5.472,-5.4696,-5.4694,-5.4692,-5.469,-5.4809,-5.4814,-5.4819,0,0,0,0,0,0,0,0,0,0,0,0,0,-5.4355,-5.436,-5.46,-5.4601,-5.4603,-5.4717,-5.4719,-5.472,-5.4697,-5.4694,-5.4691,-5.4689,-5.4807,-5.4813,-5.4819,0,0,0,0,0,0,0,0,0,0,0,0,0,-5.4466,-5.4361,-5.46,-5.4605,-5.4606,-5.4717,-5.4719,-5.4721,-5.4697,-5.4694,-5.4691,-5.4688,-5.4805,-5.4812,-5.482,-5.4932,0,0,-5.4844,-5.4847,0,0,0,0,0,0,0,0,-5.446,-5.4475,-5.4603,-5.4605,-5.4607,-5.4689,-5.4676,-5.4792,-5.4698,-5.4663,-5.469,-5.4686,-5.4771,-5.4782,-5.4811,-5.4938,-5.4943,-5.4844,-5.4849,-5.4853,-5.4855,0,0,0,0,0,0,0,-5.4452,-5.447,-5.4646,-5.4604,-5.4607,-5.4601,-5.4613,-5.4698,-5.4734,-5.4665,-5.4664,-5.4678,-5.4772,-5.4803,-5.4813,-5.4945,-5.4844,-5.4851,-5.4856,-5.4859,-5.5169,-5.5173,0,0,0,0,0,0,-5.4443,-5.4463,-5.4643,-5.465,-5.4524,-5.4608,-5.4622,-5.4666,-5.4733,-5.474,-5.4681,-5.4677,-5.4792,-5.4804,-5.4817,-5.4951,-5.4852,-5.486,-5.4864,-5.5166,-5.517,-5.5174,0,0,0,0,0,0,-5.4437,-5.4459,-5.4638,-5.4556,-5.4579,-5.4616,-5.4665,-5.467,-5.4701,-5.4744,-5.475,-5.4706,-5.479,-5.4806,-5.4904,-5.4955,-5.4863,-5.487,-5.5162,-5.5167,-5.5172,-5.5222,0,0,0,0,0,0,-5.443,-5.4457,-5.45,-5.4558,-5.4583,-5.4722,-5.4669,-5.4674,-5.4715,-5.471,-5.477,-5.4777,-5.4788,-5.4892,-5.4912,-5.4964,-5.4876,-5.5157,-5.5164,-5.517,-5.5215,-5.5228,-5.5239,0,0,0,0,0,-5.4422,-5.4509,-5.4502,-5.4524,-5.4637,-5.4725,-5.474,-5.4752,-5.4719,-5.4762,-5.479,-5.4775,-5.4948,-5.4903,-5.4924,-5.498,-5.5154,-5.5162,-5.517,-5.521,-5.5226,-5.5239,0,0,0,0,0,0,-5.4455,-5.4516,-5.4509,-5.4618,-5.4667,-5.4721,-5.4776,-5.4768,-5.4827,-5.482,-5.4833,-5.4847,-5.4945,-5.4973,-5.4922,-5.5092,-5.5046,-5.5059,-5.5069,-5.5084,-5.5096,-5.5085,-5.4883,0,0,0,0,0,-5.4476,-5.4542,-5.4592,-5.4683,-5.4708,-5.4738,-5.4777,-5.4782,-5.4833,-5.4853,-5.4888,-5.4938,-5.5003,-5.5046,-5.5109,-5.5221,-5.5233,-5.527,-5.5282,-5.5291,-5.5301,-5.5361,-5.5378,-5.5201,-5.5201,-5.5201,0,0,-5.4518,-5.4559,-5.46,-5.4691,-5.4729,-5.4797,-5.4755,-5.4829,-5.4879,-5.4864,-5.4957,-5.4986,-5.5042,-5.5147,-5.5195,-5.5173,-5.5353,-5.5302,-5.5309,-5.5313,-5.5371,-5.5388,-5.5402,-5.5206,-5.5205,-5.5204,0,0,-5.4628,-5.4667,-5.4746,-5.4786,-5.4845,-5.4865,-5.4884,-5.4941,-5.4959,-5.5053,-5.5043,-5.5104,-5.5217,-5.5257,-5.5292,-5.5421,-5.5408,-5.5441,-5.55,-5.5559,-5.5573,-5.5585,-5.5629,-5.5644,-5.5452,-5.5452,-5.5452,0,-5.4672,-5.4774,-5.4788,-5.4863,-5.4903,-5.4894,-5.4974,-5.5012,-5.5089,-5.5116,-5.5091,-5.5233,-5.527,-5.5384,-5.5415,-5.5445,-5.5466,-5.5432,-5.557,-5.5582,-5.5594,-5.5636,-5.5652,-5.5455,-5.5455,-5.5454,-5.5454,0,-5.4824,-5.4896,-5.4953,-5.5027,-5.5074,-5.5151,-5.5177,-5.5223,-5.5225,-5.5248,-5.5344,-5.5389,-5.5461,-5.5489,-5.5492,-5.5604,-5.5588,-5.5567,-5.552,-5.5614,-5.5653,-5.5669,-5.546,-5.5459,-5.5458,-5.5457,0,0,-5.4955,-5.5038,-5.5058,-5.5092,-5.5157,-5.5213,-5.529,-5.5361,-5.5399,-5.5453,-5.5517,-5.5614,-5.5595,-5.5636,-5.5644,-5.5696,-5.5792,-5.5668,-5.567,-5.5687,-5.5915,-5.5928,-5.5946,-5.5786,-5.5789,-5.5792,-5.5909,0,-5.5069,-5.5205,-5.522,-5.5341,-5.5407,-5.5401,-5.5468,-5.5516,-5.554,-5.5599,-5.5626,-5.5693,-5.5664,-5.5688,-5.574,-5.5769,-5.5837,-5.5762,-5.5844,-5.5846,-5.5826,-5.5967,-5.5981,-5.6089,-5.5925,-5.5928,-5.593,0,-5.5219,-5.5277,-5.5404,-5.5461,-5.5489,-5.555,-5.5615,-5.5673,-5.5727,-5.5741,-5.5787,-5.5789,-5.5869,-5.5822,-5.5932,-5.588,-5.5915,-5.5935,-5.594,-5.5944,-5.5891,-5.5972,-5.6124,-5.6139,-5.5954,-5.5952,-5.5951,0,-5.5298,-5.5409,-5.5499,-5.5528,-5.5598,-5.564,-5.5671,-5.5722,-5.5764,-5.5822,-5.5849,-5.5916,-5.5952,-5.6004,-5.6024,-5.5989,-5.6132,-5.6087,-5.6144,-5.6143,-5.617,-5.6167,-5.6326,-5.62,-5.6199,-5.6199,-5.6199,0,-5.5421,-5.5498,-5.5535,-5.559,-5.5677,-5.5696,-5.5781,-5.581,-5.5856,-5.5917,-5.5917,-5.5974,-5.5999,-5.6059,-5.6076,-5.6163,-5.618,-5.6193,-5.6195,-5.619,-5.6188,-5.621,-5.6202,-5.6203,-5.6202,-5.6202,-5.6201,0,-5.5521,-5.555,-5.5647,-5.5706,-5.5722,-5.5783,-5.5833,-5.5887,-5.5911,-5.5988,-5.6007,-5.6046,-5.6117,-5.6144,-5.6231,-5.6242,-5.6342,-5.634,-5.6323,-5.6323,-5.6376,-5.637,-5.6552,-5.6576,-5.6437,-5.6438,-5.6439,0,-5.5596,-5.5655,-5.5721,-5.5761,-5.5794,-5.586,-5.5902,-5.5924,-5.5968,-5.6035,-5.608,-5.6152,-5.621,-5.6325,-5.636,-5.6427,-5.6425,-5.6485,-5.6435,-5.6428,-5.6422,-5.6417,-5.6422,-5.6492,-5.6494,-5.6495,-5.6496,0,-5.5725,-5.5736,-5.5797,-5.5864,-5.5915,-5.5969,-5.6021,-5.6054,-5.6084,-5.6134,-5.6207,-5.6252,-5.6342,-5.6412,-5.6482,-5.6513,-5.6509,-5.6512,-5.6528,-5.6521,-5.6508,-5.6513,-5.6344,-5.6507,-5.6506,-5.6505,-5.6504,-5.6504,-5.5813,-5.5865,-5.5919,-5.5987,-5.6029,-5.6078,-5.613,-5.6162,-5.6224,-5.6298,-5.6308,-5.6387,-5.6441,-5.6533,-5.6568,-5.663,-5.6614,-5.6637,-5.6643,-5.6647,-5.665,-5.6502,-5.6643,-5.6643,-5.6643,-5.6642,-5.6642,0,-5.5939,-5.5974,-5.6037,-5.6109,-5.6163,-5.6157,-5.6215,-5.626,-5.6329,-5.638,-5.6437,-5.6522,-5.6591,-5.6633,-5.6702,-5.6743,-5.6743,-5.6761,-5.6756,-5.6763,-5.6662,-5.6639,-5.6759,-5.6759,-5.6759,-5.6759,-5.6759,-5.6759,-5.601,-5.6097,-5.6116,-5.6224,-5.6259,-5.6335,-5.6368,-5.6414,-5.6454,-5.6548,-5.6606,-5.6633,-5.6681,-5.6754,-5.6817,-5.6827,-5.6851,-5.687,-5.6878,-5.6782,-5.677,-5.6758,-5.6737,-5.6876,-5.6876,-5.6974,-5.6975,-5.6975]},{"header":{"parameterUnit":"m.s-1","parameterCategory":1,"la1":30.2991,"la2":30.254,"lo1":-89.0895,"lo2":-89.0444,"dy":0.0017,"dx":0.0017,"nx":28,"ny":28,"refTime":"2024-04-29T09:00:00:Z","depth":0,"parameterNumber":3,"parameterNumberName":"V-component_of_WINDS"},"data":[0,0,0,0,0,0,0,0,0,0,0,0,0,0,0,0,0,0,0,0,0,0,0,0,0,0,0,0,0,0,0,0,0,0,0,0,0,0,0,0,0,0,0,0,0,0,0,0,0,0,0,0,0,0,0,0,0,0,5.3714,5.3714,0,5.3742,5.3742,5.3743,5.3671,5.3668,5.3666,5.3664,5.3689,5.3692,5.3695,0,0,0,0,0,0,0,0,0,0,0,0,0,5.3595,5.3597,5.3714,5.3714,5.3714,5.3742,5.3742,5.3743,5.3671,5.3668,5.3665,5.3663,5.3689,5.3692,5.3695,0,0,0,0,0,0,0,0,0,0,0,0,0,5.3637,5.3598,5.3714,5.3682,5.3679,5.3742,5.3742,5.3743,5.3672,5.3668,5.3665,5.3662,5.3687,5.3692,5.3696,5.3789,0,0,5.3708,5.371,0,0,0,0,0,0,0,0,5.3635,5.3642,5.3686,5.3684,5.3681,5.3699,5.371,5.3758,5.3672,5.3674,5.3664,5.366,5.3695,5.3699,5.3711,5.379,5.3791,5.3709,5.3711,5.3713,5.3714,0,0,0,0,0,0,0,5.3632,5.364,5.3725,5.3687,5.3684,5.3666,5.3668,5.3719,5.3703,5.3674,5.3669,5.3673,5.3693,5.3707,5.3711,5.3792,5.3709,5.3712,5.3715,5.3717,5.3949,5.3952,0,0,0,0,0,0,5.3634,5.3638,5.3724,5.3725,5.365,5.367,5.3673,5.3697,5.3703,5.37,5.3676,5.367,5.3702,5.3706,5.3712,5.3821,5.3713,5.3717,5.3719,5.3945,5.395,5.3954,0,0,0,0,0,0,5.3631,5.3642,5.3723,5.368,5.3689,5.3676,5.3704,5.3699,5.3713,5.3704,5.3701,5.3694,5.3699,5.3706,5.3771,5.3821,5.3719,5.3723,5.3941,5.3947,5.3952,5.4041,0,0,0,0,0,0,5.3628,5.3642,5.3677,5.3682,5.3692,5.3782,5.3707,5.3702,5.3721,5.3713,5.372,5.3717,5.3697,5.3765,5.3775,5.3825,5.3726,5.3936,5.3943,5.395,5.4033,5.4049,5.4062,0,0,0,0,0,5.3624,5.37,5.3679,5.369,5.3736,5.3785,5.379,5.3767,5.3725,5.3761,5.3755,5.3717,5.3815,5.3772,5.3783,5.3835,5.3933,5.3941,5.3949,5.4027,5.4046,5.4062,0,0,0,0,0,0,5.37,5.37,5.3677,5.3757,5.3772,5.3773,5.3816,5.3787,5.3813,5.3804,5.3773,5.3775,5.3845,5.3847,5.3799,5.3926,5.3867,5.3877,5.3922,5.394,5.3954,5.3951,5.3729,0,0,0,0,0,5.3727,5.3767,5.3764,5.3835,5.3844,5.383,5.3849,5.383,5.3844,5.3849,5.3848,5.3862,5.3895,5.3918,5.3948,5.4034,5.4034,5.4075,5.409,5.4102,5.4111,5.4156,5.4174,5.3981,5.3981,5.3981,0,0,5.378,5.3786,5.3813,5.3851,5.386,5.3901,5.3835,5.3881,5.3912,5.3856,5.3917,5.3917,5.393,5.4006,5.4039,5.4009,5.4165,5.4112,5.4122,5.4124,5.4167,5.4185,5.4201,5.3986,5.3985,5.3985,0,0,5.39,5.3909,5.3969,5.398,5.3995,5.3985,5.4,5.4006,5.4005,5.4066,5.4025,5.406,5.4119,5.413,5.4143,5.427,5.4236,5.4281,5.4355,5.44,5.4415,5.4429,5.4473,5.449,5.4291,5.4291,5.4291,0,5.3965,5.4027,5.4003,5.4053,5.4071,5.4024,5.4085,5.4096,5.412,5.4133,5.41,5.4173,5.4179,5.4257,5.4288,5.4301,5.4316,5.4279,5.4416,5.4429,5.4441,5.4483,5.45,5.4296,5.4296,5.4295,5.4295,0,5.4106,5.415,5.4197,5.4223,5.4246,5.4301,5.4285,5.4311,5.4291,5.4284,5.4348,5.4353,5.4384,5.4401,5.4381,5.4477,5.4458,5.4421,5.436,5.4465,5.4504,5.452,5.4304,5.4302,5.43,5.4299,0,0,5.4272,5.4286,5.4303,5.4315,5.433,5.4363,5.4416,5.4448,5.4471,5.449,5.4533,5.4585,5.4551,5.4566,5.4547,5.4587,5.4687,5.4545,5.4545,5.457,5.4792,5.4819,5.4838,5.4665,5.4668,5.4671,5.4791,0,5.4389,5.4482,5.4462,5.4553,5.4593,5.455,5.4596,5.461,5.4606,5.4639,5.4634,5.4672,5.4624,5.4634,5.4671,5.4667,5.4731,5.4658,5.4704,5.4706,5.47,5.4859,5.4887,5.5,5.4806,5.4809,5.481,0,5.4538,5.4565,5.466,5.4669,5.4685,5.4727,5.4755,5.4788,5.4803,5.4797,5.4816,5.4789,5.4842,5.4783,5.4854,5.4805,5.4823,5.4824,5.4828,5.4829,5.4763,5.4864,5.5036,5.5052,5.4834,5.4832,5.4831,0,5.4649,5.4708,5.4773,5.4784,5.4797,5.4827,5.4834,5.4846,5.4867,5.4891,5.4904,5.4934,5.4951,5.4974,5.4957,5.4915,5.5031,5.497,5.5027,5.5027,5.5051,5.5049,5.5227,5.5065,5.5065,5.5065,5.5064,0,5.4781,5.4841,5.4823,5.4862,5.4928,5.4905,5.497,5.4972,5.4983,5.5021,5.4987,5.5023,5.4999,5.5033,5.502,5.5081,5.5089,5.5085,5.508,5.5087,5.5088,5.5097,5.5088,5.5069,5.5068,5.5067,5.5067,0,5.4915,5.4905,5.4973,5.498,5.4984,5.5032,5.5037,5.5074,5.5069,5.5118,5.5128,5.5119,5.5158,5.5144,5.5185,5.5176,5.5254,5.5239,5.5249,5.5245,5.5302,5.5296,5.549,5.5514,5.5339,5.534,5.5342,0,5.4999,5.5044,5.5058,5.5082,5.5092,5.5131,5.5152,5.5132,5.5156,5.5178,5.5212,5.5248,5.5276,5.5341,5.5337,5.5369,5.5354,5.542,5.5358,5.5364,5.5354,5.5351,5.5355,5.5432,5.5434,5.5436,5.5437,0,5.515,5.5144,5.5177,5.521,5.5237,5.5261,5.5282,5.5303,5.5285,5.5313,5.5354,5.5376,5.5419,5.5455,5.5484,5.549,5.546,5.5457,5.5471,5.5478,5.5482,5.548,5.5281,5.5452,5.545,5.5449,5.5449,5.5448,5.5261,5.53,5.5315,5.5354,5.5368,5.5389,5.5424,5.5424,5.5457,5.5492,5.5478,5.5525,5.5539,5.5575,5.5585,5.5621,5.5595,5.5616,5.5622,5.5627,5.5634,5.5478,5.5626,5.5626,5.5625,5.5625,5.5625,0,5.541,5.5418,5.5454,5.5485,5.5516,5.5488,5.551,5.5537,5.5579,5.5595,5.5624,5.5671,5.5707,5.5707,5.574,5.5769,5.5756,5.5778,5.5775,5.5777,5.5655,5.5639,5.5788,5.5788,5.5788,5.5788,5.5788,5.5788,5.549,5.5554,5.555,5.562,5.5628,5.5674,5.5689,5.5708,5.5721,5.5776,5.5806,5.5807,5.5817,5.5851,5.5882,5.5881,5.5895,5.5921,5.5916,5.5802,5.5785,5.577,5.5754,5.5925,5.5925,5.6034,5.6035,5.6035]}]]